Weather History for LERT - October, 2012

Change the Weather History Date:

Tuesday, October 30, 2012

  Actual Average Record
Temperature  
Mean Temperature 62 °F -  
Max Temperature 66 °F 63 °F 80 °F (2014)
Min Temperature 57 °F 51 °F 42 °F (2008)
Degree Days  
Heating Degree Days 4    
Growing Degree Days 12 (Base 50)    
Moisture  
Dew Point 56 °F    
Average Humidity 87    
Maximum Humidity 94    
Minimum Humidity 77    
Precipitation  
Precipitation 0.00 in - - ()
Sea Level Pressure  
Sea Level Pressure 29.60 in    
Wind  
Wind Speed 8 mph ()    
Max Wind Speed 20 mph    
Max Gust Speed 36 mph    
Visibility 5.6 miles    
Events Rain    
Averages and records for this station are not official NWS values.
T = Trace of Precipitation, MM = Missing Value Source: Averaged Metar Reports

Daily Weather History Graph

Daily Weather History Graph

Search for Another Location

Airport or City:

Trip Planner

Search our weather history database for the weather conditions in past years. The results will help you decide how hot, cold, wet, or windy it might be!

Date:

Astronomy

Oct. 30, 2012 Rise Set
Actual Time 7:47 AM CET 6:30 PM CET
Civil Twilight 7:20 AM CET 6:56 PM CET
Nautical Twilight 6:50 AM CET 7:27 PM CET
Astronomical Twilight 6:19 AM CET 7:57 PM CET
Moon 6:53 PM CET (10/30) 8:19 AM CET (10/30)
Length of Visible Light 11h 36m
Length of Day
10h 43m
Full, 100% of the Moon is Illuminated
Oct 30
Full
Nov 7
Last Quarter
Nov 13
New
Nov 20
First Quarter
Nov 28
Full

Hourly Weather History & Observations

Time (CET) Temp. Dew Point Humidity Pressure Visibility Wind Dir Wind Speed Gust Speed Precip Events Conditions
12:00 AM 60.8 °F 53.6 °F 77% 29.77 in - SE 9.2 mph - N/A   Clear
1:00 AM 60.8 °F 53.6 °F 77% 29.74 in - SE 9.2 mph - N/A   Clear
2:00 AM 60.8 °F 55.4 °F 82% 29.74 in 6.2 mi SE 6.9 mph - N/A   Partly Cloudy
3:00 AM 60.8 °F 55.4 °F 82% 29.71 in 6.2 mi SE 10.4 mph - N/A Rain Light Rain
4:00 AM 60.8 °F 55.4 °F 82% 29.68 in 6.2 mi ESE 11.5 mph - N/A   Partly Cloudy
6:00 AM 60.8 °F 55.4 °F 82% 29.62 in 6.2 mi SE 16.1 mph - N/A   Mostly Cloudy
7:00 AM 60.8 °F 53.6 °F 77% 29.59 in 6.2 mi SSE 16.1 mph - N/A   Mostly Cloudy
8:00 AM 60.8 °F 55.4 °F 82% 29.59 in 6.2 mi SSE 12.7 mph - N/A   Mostly Cloudy
9:00 AM 62.6 °F 60.8 °F 94% 29.59 in 3.1 mi South 19.6 mph 35.7 mph N/A Rain Rain
9:38 AM 64.4 °F 62.6 °F 94% 29.62 in 4.3 mi WSW 10.4 mph - N/A   Mostly Cloudy
11:00 AM 66.2 °F 59.0 °F 78% 29.62 in 6.2 mi West 11.5 mph - N/A   Mostly Cloudy
12:00 PM 64.4 °F 59.0 °F 83% 29.62 in 6.2 mi West 9.2 mph - N/A   Mostly Cloudy
1:00 PM 64.4 °F 59.0 °F 83% 29.59 in 5.6 mi West 8.1 mph - N/A Rain Light Rain
2:00 PM 62.6 °F 59.0 °F 88% 29.56 in 5.6 mi WNW 4.6 mph - N/A Rain Light Rain
3:00 PM 59.0 °F 55.4 °F 88% 29.53 in 4.3 mi NNW 6.9 mph - N/A Rain Light Rain
4:00 PM 59.0 °F 57.2 °F 94% 29.53 in 4.3 mi Variable 2.3 mph - N/A Rain Light Rain
5:00 PM 57.2 °F 55.4 °F 94% 29.53 in 4.3 mi Variable 2.3 mph - N/A Rain Light Rain
7:00 PM 57.2 °F 55.4 °F 94% 29.50 in 6.2 mi Variable 1.2 mph - N/A Rain Light Rain
8:00 PM 57.2 °F 55.4 °F 94% 29.50 in 6.2 mi Calm Calm - N/A Rain Light Rain
9:00 PM 57.2 °F 55.4 °F 94% 29.47 in 6.2 mi ESE 6.9 mph - N/A   Mostly Cloudy
10:00 PM 57.2 °F 55.4 °F 94% 29.50 in 6.2 mi Variable 1.2 mph - N/A   Mostly Cloudy
11:00 PM 57.2 °F 55.4 °F 94% 29.50 in 6.2 mi Variable 2.3 mph - N/A   Scattered Clouds